Погода в Тобольске

Хотите узнать прогноз погоды в Тобольске? Тогда Вам сюда: Погода в Тобольске

Поиск расширенной информации на нашем сайте:

Полезная информация:

Новости сайта



02.01.2020
Опубликован Долгосрочный прогноз погоды по городам России и ближнего зарубежья на январь 2020 года.
Карты: Прогноз на январь и февраль 2020 года, Сравнение прогнозируемой аномалии приземной температуры воздуха на январь 2020 года по разным моделям.




Погода в Тобольске - сегодня

Время (UTC), дата Ветер
(°,м/с) 
Видим.   Явления Облачность Т
(°С)
Тd
(°С)
f(%) Тe
(°С)
Pmin
(гПа)
dP
(гПа)
Po
(мм)
O2
(г/м3)
Тmin Tmax R s Состояние
почвы
15 09.08.20 080 (В) 20000 м    5/3 600 м верхняя 
[Sc diur, vesp|Ci fib]
+24.1 +15 57 +33  999.6  -0.8  746  273    +29.9       
18 09.08.20 090 (В) 10 км    ясно 
+21.5 +15 66 +30  998.9  -0.8  745  275           
21 09.08.20 100 (В) 10 км    ясно 
+19.7 +15.1 75 +30  997.6  -1.3  744  276           
00 10.08.20 090 (В) 20000 м    3/0 средняя, верхняя 
[Ac lent|Ci fib]
+19 +14.9 77 +29  996.9  -0.7  743  277           
03 10.08.20 110 (В) 20000 м    5/0 верхняя 
[Ci fib]
+22.6 +15.4 64 +32  996.4  -0.4  743  273  +17.5         
06 10.08.20 110 (В) 20000 м    3/0 верхняя 
[Ci fib]
+26.8 +15.3 49 +36  995.4  -0.9  742  269           
09 10.08.20 140 (ЮВ) 20000 м    6/0 верхняя 
[Ci sp]
+30.1 +13.5 36 +37  995.1  -0.2  742  267           
12 10.08.20 110 (В) 20000 м    6/4 600 м кучево-дожд., верхняя 
[Cb cap|Ci fib]
+29.5 +14 39 +37  994.3  -0.9  742  267           
15 10.08.20 060 (СВ) 20000 м    6/3 600 м кучево-дожд., верхняя 
[Cb cap|Ci sp]
+24.3 +14.6 55 +33  994.6  0.3  742  271    +30.4       
18 10.08.20 100 (В) 10 км  {гроза}  ясно 
+21.2 +14.5 66 +29  994.4  -0.3  742  274           
21 10.08.20 060 (СВ) 10 км  гроза, пыльная буря{морось}  3/0 верхняя 
[Ci fib]
+17.5 +15.1 86 +27    -0.9  741  277           
00 11.08.20 070 (В) 20000 м    10/4 600 м кучево-дожд., средняя, верхняя 
[Cb cap|Ac trans|Ci sp]
+18.7 +15 79 +29  993.8  0.2  741  276           
03 11.08.20 080 (В) 20000 м    10/0 средняя, верхняя 
[Ac trans|Ci sp]
+21.2 +15.7 71 +31  993.8  0.1  741  274  +17.3         
06 11.08.20 080 (В) 20000 м    8/0 средняя, верхняя 
[Ac trans|Ci sp]
+24.4 +16 59 +35  993.8    741  271           
09 11.08.20 110 (В) 20000 м    10/4 600 м верхняя 
[Cu med, cong|Ci sp]
+28.1 +13.1 40 +34  994.4  0.6  742  268           
12 11.08.20 030 (СВ) 20000 м    10/3 600 м верхняя 
[Cu med, cong|Ci sp]
+28.1 +12.7 39 +33  994.4  742  269           
15 11.08.20 330 (СЗ) 20000 м    10/4 600 м кучево-дожд., верхняя 
[Cb cap|Ci sp]
+22.4 +17.3 73 +36  995.5  742  273    +29.3       
18 11.08.20 330 (СЗ) 10 км    10/3 600 м верхняя 
[Sc|Ci sp]
+19.2 +16.7 85 +32  996.1  0.5  743  276           
21 11.08.20 360 (С) 10 км  гроза без осадков  10/5 600 м кучево-дожд., верхняя 
[Cb cap|Ci sp]
+18.9 +16.5 86 +32  995.8  -0.3  743  276           
00 12.08.20 340 (С) 3{10}  20000 м  {гроза}  10/0 средняя 
[As op]
+15.6 +14.2 91 +24  996.9  743  280           
03 12.08.20 350 (С) 10 км  слаб. морось{гроза, снег}  10/10 300 м 
[St]
+15.6 +14.5 93 +24  997.7  0.9  744  281  +15.4    0.0     
06 12.08.20 330 (СЗ) 5-10{11}  20000 м  в посл. час ливневой дождь{гроза}  10/10 600 м кучево-дожд. 
[Cb cap]
+15.9 +13.5 86 +22  998.7  745  281           
09 12.08.20 340 (С) 4{10}  20000 м  {ливн. осадки}  10/10 600 м кучево-дожд. 
[Cb cap]
+14.9 +12.6 86 +20  1000.1  1.4  746  282           
12 12.08.20 340 (С) 4{10}  20000 м  {ливн. осадки}  10/10 300 м 
[Frnb]
+14.7 +11.9 83 +19  1001.7  1.5  747  283           
15 12.08.20 330 (СЗ) 4{11}  20000 м    10/10 600 м 
[Frnb]
+14.2 +11.9 86 +18  1002.6  0.9  748  284    +16  0.0     
Время (UTC), дата Ветер
(°,м/с) 
Видим.   Явления Облачность Т
(°С)
Тd
(°С)
f(%) Тe
(°С)
Pmin
(гПа)
dP
(гПа)
Po
(мм)
O2
(г/м3)
Тmin Tmax R s Состояние
почвы

Для получения пояснительной информации подведите курсор к названию столбца.

ПОГОДА в Тобольске - архив

Всё, что Вы хотите узнать о погоде в Тобольске - удобно и подробно!

Выберите нужную дату (начиная с 1 января 2019* года) и нажмите кнопку "Найти".
Будут отображены архивные сводки погоды по пункту Тобольск, начиная с указанной даты.


Отображать данные в формате CSV (для использования в таблицах Excel)


Внимание! Наш архив погоды предназначен исключительно для личного некоммерческого использования в познавательных целях. Если Вам необходимы официальные справки о состоянии погоды (для производственных, юридических, коммерческих и т.п. целей), обращайтесь в органы Росгидромета.

*Примечание: данная дата относится к архиву по метеостанциям СССР (Россия, СНГ, Балтия).
Архив по метеостанциям Зарубежной Европы и Азии (кроме Китая) хранится 10 дней, по другим регионам земного шара (Китай, Африка, Америка, Австралия, Океания) - 1 день.

Тобольск - район местоположения метеостанции


Название, широта, долгота, высота метеостанции:
Тобольск 58.2°ш. 68.2°д. 50 м над ур. моря [Российская Федерация]

Дополнительная информация

В oтличие oт бoльшинства пoгoдных сайтoв мы публикуем пoдрoбную метеoинфoрмацию в детальнoм прoфессиoнальнoм фoрмате.

Характеристики температуры и влажнoсти вoздуха измеряются на высoте 2 м в тени вдали oт зданий и деревьев.
Скoрoсть ветра измеряется на высoте 10 м (на урoвне рoста челoвека скoрoсть ветра ниже в 1.5-2 раза). Если метеoстанция нахoдится в гoрoде или в лесу, тo скoрoсть ветра занижена на 2-4 м/с пo сравнению с oткрытым местoм. Скoрoсть ветра над акватoриями крупных рек и oзёр, а также на вершинах хoлмoв на 2-5 м/с выше, чем в oбычных услoвиях.
Атмoсфернoе давление в разных тoчках местнoсти мoжет значительнo oтличаться oт давления на метеoстанции, в зависимoсти oт услoвий рельефа (при пoдъёме на 10 м давление пoнижается примернo на 1 мм рт.ст.).